When you browse on this site, cookies collect data to enhance your experience and personalize the content and advertising you see.
Visit our Privacy Policy to learn more. By continuing to use the site, you agree to this use of cookies and data.
  • In Lithuania
  • List of Countries
  • For 7 days
  • Water Temperature
  • Satellite Maps
  • Weather Map
  • Weather Widgets
  • user-avatar
    Login

    Hourly Weather Buenos Aires

    Today, 18 February, Monday

    Time Temperature Precipitation Wind Pressure Humidity
    00:00 +28°C° 0 mm 5 mps 758 mmHg 57%
    01:00 +28°C° 0 mm 5 mps 757 mmHg 60%
    02:00 +27°C° 0 mm 5 mps 757 mmHg 62%
    03:00 +27°C° 0 mm 5 mps 757 mmHg 65%
    04:00 +27°C° 0 mm 5 mps 757 mmHg 69%
    05:00 +26°C° 0 mm 5 mps 757 mmHg 73%
    06:00 +27°C° 0 mm 5 mps 757 mmHg 70%
    07:00 +27°C° 0 mm 4 mps 757 mmHg 68%
    08:00 +28°C° 0 mm 4 mps 757 mmHg 65%
    09:00 +29°C° 0 mm 4 mps 757 mmHg 58%
    10:00 +31°C° 0 mm 3 mps 756 mmHg 51%
    11:00 +34°C° 0 mm 3 mps 756 mmHg 43%
    12:00 +35°C° 0 mm 3 mps 756 mmHg 40%
    13:00 +36°C° 0 mm 3 mps 755 mmHg 37%
    14:00 +37°C° 0 mm 3 mps 754 mmHg 33%
    15:00 +37°C° 0 mm 3 mps 754 mmHg 34%
    16:00 +36°C° 0 mm 4 mps 753 mmHg 35%
    17:00 +36°C° 0 mm 4 mps 753 mmHg 35%
    18:00 +35°C° 0 mm 4 mps 753 mmHg 40%
    19:00 +34°C° 0 mm 4 mps 753 mmHg 44%
    20:00 +33°C° 0 mm 5 mps 753 mmHg 49%
    21:00 +32°C° 0 mm 4 mps 754 mmHg 49%
    22:00 +32°C° 0 mm 4 mps 754 mmHg 50%
    23:00 +31°C° 0 mm 3 mps 754 mmHg 50%

    Tomorrow, 19 February, Tuesday

    Time Temperature Precipitation Wind Pressure Humidity
    00:00 +30°C° 0 mm 3 mps 754 mmHg 51%
    01:00 +30°C° 0 mm 4 mps 754 mmHg 52%
    02:00 +29°C° 0 mm 4 mps 754 mmHg 52%
    03:00 +29°C° 0 mm 4 mps 754 mmHg 53%
    04:00 +29°C° 0 mm 4 mps 754 mmHg 54%
    05:00 +29°C° 0 mm 4 mps 753 mmHg 55%
    06:00 +29°C° 0 mm 4 mps 754 mmHg 52%
    07:00 +30°C° 0 mm 4 mps 754 mmHg 49%
    08:00 +31°C° 0 mm 3 mps 754 mmHg 46%
    09:00 +34°C° 0 mm 3 mps 754 mmHg 40%
    10:00 +37°C° 0 mm 2 mps 754 mmHg 33%
    11:00 +39°C° 0 mm 2 mps 753 mmHg 26%
    12:00 +40°C° 0 mm 2 mps 753 mmHg 23%
    13:00 +42°C° 0 mm 2 mps 752 mmHg 20%
    14:00 +43°C° 0 mm 2 mps 751 mmHg 17%
    15:00 +43°C° 0 mm 2 mps 751 mmHg 17%
    16:00 +42°C° 0 mm 2 mps 751 mmHg 17%
    17:00 +42°C° 0 mm 2 mps 750 mmHg 17%
    18:00 +40°C° 0 mm 3 mps 751 mmHg 20%
    19:00 +39°C° 0 mm 3 mps 751 mmHg 23%
    20:00 +37°C° 0 mm 3 mps 751 mmHg 27%
    21:00 +37°C° 0 mm 3 mps 752 mmHg 30%
    22:00 +36°C° 0 mm 4 mps 752 mmHg 33%
    23:00 +35°C° 0 mm 4 mps 752 mmHg 36%

    Day after tomorrow, 20 February, Wednesday

    Time Temperature Precipitation Wind Pressure Humidity
    00:00 +34°C° 0 mm 4 mps 752 mmHg 37%
    01:00 +34°C° 0 mm 4 mps 752 mmHg 38%
    02:00 +33°C° 0 mm 5 mps 752 mmHg 39%
    03:00 +33°C° 0 mm 5 mps 752 mmHg 40%
    04:00 +32°C° 0 mm 5 mps 753 mmHg 41%
    05:00 +32°C° 0 mm 5 mps 753 mmHg 41%
    06:00 +32°C° 0 mm 5 mps 753 mmHg 41%
    07:00 +33°C° 0 mm 5 mps 753 mmHg 40%
    08:00 +34°C° 0 mm 5 mps 754 mmHg 40%
    09:00 +36°C° 0 mm 5 mps 754 mmHg 34%
    10:00 +38°C° 0 mm 4 mps 754 mmHg 29%
    11:00 +42°C° 0 mm 4 mps 753 mmHg 24%
    12:00 +42°C° 0 mm 4 mps 753 mmHg 22%
    13:00 +43°C° 0 mm 4 mps 752 mmHg 21%
    14:00 +45°C° 0 mm 5 mps 752 mmHg 19%
    15:00 +45°C° 0 mm 5 mps 751 mmHg 20%
    16:00 +43°C° 0 mm 5 mps 751 mmHg 21%
    17:00 +43°C° 0 mm 5 mps 751 mmHg 22%
    18:00 +41°C° 0 mm 6 mps 751 mmHg 24%
    19:00 +40°C° 0 mm 6 mps 752 mmHg 27%
    20:00 +39°C° 0 mm 7 mps 752 mmHg 29%
    21:00 +38°C° 0 mm 7 mps 753 mmHg 32%
    22:00 +36°C° 0 mm 7 mps 753 mmHg 34%
    23:00 +36°C° 0 mm 7 mps 754 mmHg 37%

    21 February, Thursday

    Time Temperature Precipitation Wind Pressure Humidity
    00:00 +35°C° 0 mm 6 mps 754 mmHg 37%
    01:00 +35°C° 0 mm 6 mps 754 mmHg 38%
    02:00 +34°C° 0 mm 5 mps 754 mmHg 39%
    03:00 +34°C° 0 mm 5 mps 754 mmHg 41%
    04:00 +33°C° 0 mm 5 mps 754 mmHg 43%
    05:00 +32°C° 0 mm 4 mps 755 mmHg 45%
    06:00 +33°C° 0 mm 4 mps 755 mmHg 44%
    07:00 +33°C° 0 mm 3 mps 756 mmHg 43%
    08:00 +34°C° 0 mm 3 mps 756 mmHg 42%
    09:00 +36°C° 0 mm 3 mps 756 mmHg 38%
    10:00 +37°C° 0 mm 3 mps 756 mmHg 33%
    11:00 +39°C° 0 mm 2 mps 756 mmHg 29%
    12:00 +39°C° 0 mm 3 mps 755 mmHg 27%
    13:00 +40°C° 0 mm 3 mps 755 mmHg 25%
    14:00 +42°C° 0 mm 3 mps 754 mmHg 23%
    15:00 +40°C° 0 mm 3 mps 754 mmHg 24%
    16:00 +40°C° 0 mm 3 mps 754 mmHg 25%
    17:00 +41°C° 0 mm 4 mps 753 mmHg 26%
    18:00 +38°C° 0 mm 4 mps 754 mmHg 30%
    19:00 +37°C° 0 mm 4 mps 755 mmHg 34%
    20:00 +35°C° 0 mm 4 mps 755 mmHg 39%
    21:00 +34°C° 0 mm 5 mps 756 mmHg 43%
    22:00 +32°C° 0 mm 6 mps 757 mmHg 48%
    23:00 +29°C° 0 mm 6 mps 757 mmHg 52%

    22 February, Friday

    Time Temperature Precipitation Wind Pressure Humidity
    00:00 +29°C° 0.4 mm 6 mps 757 mmHg 58%
    01:00 +28°C° 0.4 mm 6 mps 757 mmHg 64%
    02:00 +27°C° 0.4 mm 5 mps 757 mmHg 70%
    03:00 +27°C° 1.2 mm 5 mps 757 mmHg 74%
    04:00 +26°C° 1.2 mm 5 mps 758 mmHg 77%
    05:00 +26°C° 1.2 mm 5 mps 758 mmHg 81%
    06:00 +26°C° 2.8 mm 5 mps 759 mmHg 81%
    07:00 +26°C° 2.8 mm 5 mps 759 mmHg 82%
    08:00 +25°C° 2.8 mm 5 mps 760 mmHg 82%
    09:00 +26°C° 1.8 mm 5 mps 760 mmHg 81%
    10:00 +26°C° 1.8 mm 5 mps 760 mmHg 79%
    11:00 +27°C° 1.8 mm 4 mps 760 mmHg 77%
    12:00 +27°C° 0.8 mm 5 mps 760 mmHg 76%
    13:00 +27°C° 0.8 mm 5 mps 759 mmHg 76%
    14:00 +27°C° 0.8 mm 5 mps 759 mmHg 76%
    15:00 +27°C° 0.2 mm 5 mps 759 mmHg 75%
    16:00 +26°C° 0.2 mm 6 mps 759 mmHg 74%
    17:00 +26°C° 0.2 mm 6 mps 759 mmHg 73%
    18:00 +26°C° 0.1 mm 6 mps 759 mmHg 74%
    19:00 +26°C° 0.1 mm 7 mps 759 mmHg 75%
    20:00 +24°C° 0.1 mm 7 mps 759 mmHg 76%
    21:00 +24°C° 0 mm 6 mps 759 mmHg 76%
    22:00 +24°C° 0 mm 6 mps 759 mmHg 77%
    23:00 +25°C° 0 mm 5 mps 759 mmHg 77%

    23 February, Saturday

    Time Temperature Precipitation Wind Pressure Humidity
    00:00 +25°C° 0 mm 5 mps 759 mmHg 77%
    01:00 +25°C° 0 mm 5 mps 758 mmHg 77%
    02:00 +25°C° 0 mm 5 mps 758 mmHg 77%
    03:00 +25°C° 0 mm 5 mps 757 mmHg 78%
    04:00 +23°C° 0 mm 4 mps 757 mmHg 78%
    05:00 +23°C° 0 mm 4 mps 757 mmHg 78%
    06:00 +25°C° 0 mm 4 mps 756 mmHg 76%
    07:00 +25°C° 0 mm 4 mps 756 mmHg 73%
    08:00 +26°C° 0 mm 4 mps 756 mmHg 71%
    09:00 +27°C° 0 mm 4 mps 755 mmHg 68%
    10:00 +28°C° 0 mm 4 mps 755 mmHg 65%
    11:00 +29°C° 0 mm 3 mps 754 mmHg 62%
    12:00 +30°C° 0 mm 3 mps 753 mmHg 58%
    13:00 +31°C° 0 mm 3 mps 752 mmHg 55%
    14:00 +32°C° 0 mm 2 mps 751 mmHg 52%
    15:00 +32°C° 0 mm 2 mps 751 mmHg 53%
    16:00 +32°C° 0 mm 2 mps 750 mmHg 55%
    17:00 +31°C° 0 mm 3 mps 750 mmHg 57%
    18:00 +31°C° 0.2 mm 2 mps 750 mmHg 61%
    19:00 +30°C° 0.2 mm 2 mps 750 mmHg 65%
    20:00 +29°C° 0.2 mm 2 mps 750 mmHg 70%
    21:00 +29°C° 0.5 mm 3 mps 750 mmHg 71%
    22:00 +28°C° 0.5 mm 3 mps 750 mmHg 73%
    23:00 +28°C° 0.5 mm 4 mps 750 mmHg 75%
    Show more